Regional Weather Roundup
Issued by NWS Charleston, WV

Home | Current Version | Previous Version | Text Only | Print | Product List | Glossary On
Versions: 1 2 3 4 5 6 7 8 9 10 11 12 13 14 15 16 17 18 19 20 21 22 23 24 25 26 27 28 29 30 31 32 33 34 35 36 37 38 39 40 41 42 43 44 45 46 47 48 49 50
000
ASUS41 KRLX 061210
RWRRLX
West Virginia Regional Weather Roundup
National Weather Service Charleston WV
800 AM EDT WED MAY 06 2015

Note: "fair" indicates few or no clouds below 12,000 feet with no
significant weather and/or obstructions to visibility.

WVZ003-061300-
Northern Panhandle of West Virginia

CITY           SKY/WX    TMP DP  RH WIND       PRES   REMARKS
WHEELING       PTSUNNY   58  57  97 CALM      30.23R FOG
$$

WVZ009-061300-
Northwest West Virginia

CITY           SKY/WX    TMP DP  RH WIND       PRES   REMARKS
PARKERSBURG    SUNNY     59  57  93 CALM      30.25S FOG
$$

WVZ006-061300-
Western West Virginia

CITY           SKY/WX    TMP DP  RH WIND       PRES   REMARKS
HUNTINGTON     CLOUDY    58  56  93 CALM      30.23R
$$

WVZ015-061300-
West Central West Virginia

CITY           SKY/WX    TMP DP  RH WIND       PRES   REMARKS
CHARLESTON     MOSUNNY   60  56  86 CALM      30.24R
$$

WVZ022-031-061300-
North Central West Virginia

CITY           SKY/WX    TMP DP  RH WIND       PRES   REMARKS
CLARKSBURG     SUNNY     58  57  97 CALM      30.25R
MORGANTOWN     SUNNY     62  56  80 CALM      30.26R
$$

WVZ025-035-042-045-061300-
Southern West Virginia

CITY           SKY/WX    TMP DP  RH WIND       PRES   REMARKS
BECKLEY        CLOUDY    62  52  69 CALM      30.29R
LOGAN            N/A     61  55  82 CALM      30.23R
BLUEFIELD      CLOUDY    64  51  62 W6        30.31R
LEWISBURG      PTSUNNY   58  55  89 NE3       30.30R
$$

WVZ047-061300-
Northern Mountains of West Virginia

CITY           SKY/WX    TMP DP  RH WIND       PRES   REMARKS
ELKINS         SUNNY     52  50  93 CALM      30.31R FOG
$$

WVZ052-061300-
Eastern Panhandle of West Virginia

CITY           SKY/WX    TMP DP  RH WIND       PRES   REMARKS
MARTINSBURG    SUNNY     62  59  90 CALM      30.24R FOG
PETERSBURG     FOG       53  51  90 CALM      30.27S VSB 1/2
$$


USA.gov is the U.S. government's official web portal to all federal, state and local government web resources and services.